星链-36659(STARLINK-36659)

导读 | 豆包AI

STARLINK-36659是美国SpaceX公司星链(Starlink)项目的低轨通信卫星,于2026年2月16日由猎鹰9号火箭从卡纳维拉尔角发射升空,属于星链6-103任务组网卫星,加入全球已有超9600颗卫星的低轨宽带星座。它依托星链先进的激光通信技术,旨在扩展全球网络覆盖,为偏远及基础设施薄弱地区提供高速低延迟的宽带互联网服务,进一步完善了星链全球卫星互联网的服务能力。

基本信息
目录编号:
67833
目录名称:
STARLINK-36659
国际标识:
2026-033N
轨道中心:
EARTH
卫星名称:
星链-36659
卫星全名:
星链-36659(STARLINK-36659)
卫星状态:
在轨 (已飞行98 天)
发射日期:
2026-02-16 UTC
国别 :
美国 (US)
星等 :
--
轨道信息
数据来源 国际轨道数据 AOE轨道数据
星历时间 2026-05-25T12:15:03+0800
8小时前
查看轨道信息
2026-05-21T08:00:00+0800
4天前
查看轨道信息
半长轴 6861.201km 6861.191km
偏心率 0.0001404 0.0001085
轨道倾角 43.001° 43.001°
近地点辐角 259.237° 281.681°
升交点赤经 194.922° 218.512°
平近点角 100.832° 120.344°
近地点 482.1km 482.309km
远地点 484.028km 483.799km
周期 94.267分钟 94.267分钟
每日圈数 15.275753 15.275784
详细信息
固有亮度:
5
最大亮度:
2.5
卫星平台:
Starlink V1.0
覆盖范围:
全球
运营商:
太空探索技术公司
运营商所在国:
美国
制造商(研发单位):
太空探索技术公司
制造商所在国:
美国
使用方式:
暂无
卫星简介
Starlink 计划是 SpaceX 推出的全球卫星互联网项目,通过发射低轨道卫星,为全球尤其是偏远地区提供高速、低延迟的互联网服务。自 2019 年起,Starlink 已部署数千颗卫星,旨在缩小全球数字鸿沟,推动互联网普及。该项目还为军事、航空等行业提供通信支持,带来广泛经济效益。
2D轨道图
3D轨道图
轨道高度分析图
轨道倾角分析图
轨道综合分析图
查看轨道综合分析图